N50HR KFLL-

Flight info

Callsign N50HR
Flight time N/A
Altitude VFR/006
Route SOUTH
Aircraft A139/L-DOV/C

Departure

Time 2026-05-03 20:43
Airport Fort Lauderdale Hollywood International Airport (KFLL)

Arrival

Time N/A
Airport -
Time Latitude Longitude Altitude Speed Heading
2026-05-03 20:42 26.02576 -80.18482 716 ft 118 kts 219°
2026-05-03 20:43 26.01931 -80.19066 730 ft 118 kts 217°
2026-05-03 20:43 26.01269 -80.19617 727 ft 119 kts 220°
2026-05-03 20:43 26.00646 -80.20213 723 ft 118 kts 220°
2026-05-03 20:43 26.00032 -80.20842 721 ft 118 kts 221°
2026-05-03 20:44 25.99447 -80.21473 727 ft 118 kts 223°
2026-05-03 20:44 25.98852 -80.22114 725 ft 118 kts 223°
2026-05-03 20:44 25.98286 -80.22760 721 ft 109 kts 225°
2026-05-03 20:44 25.97777 -80.23331 682 ft 101 kts 225°
2026-05-03 20:45 25.97307 -80.23890 646 ft 96 kts 223°
2026-05-03 20:45 25.96858 -80.24392 622 ft 89 kts 228°
2026-05-03 20:45 25.96417 -80.24871 602 ft 86 kts 229°
2026-05-03 20:45 25.95983 -80.25306 585 ft 77 kts 201°
2026-05-03 20:46 25.95739 -80.24967 446 ft 70 kts 65°
2026-05-03 20:46 25.95861 -80.24603 227 ft 36 kts 70°
2026-05-03 20:46 25.95896 -80.24455 95 ft 12 kts 84°
2026-05-03 20:46 25.95906 -80.24424 56 ft 5 kts 186°
2026-05-03 20:47 25.95862 -80.24442 19 ft 3 kts 184°
2026-05-03 20:47 25.95857 -80.24442 9 ft 0 kts 185°
2026-05-03 20:53 25.95845 -80.24429 30 ft 7 kts 40°
2026-05-03 20:53 25.95867 -80.24414 54 ft 10 kts 31°
2026-05-03 20:53 25.95928 -80.24364 360 ft 56 kts 31°
2026-05-03 20:54 25.96369 -80.23903 593 ft 108 kts 48°
2026-05-03 20:54 25.97609 -80.22480 757 ft 147 kts 38°
2026-05-03 20:54 25.98360 -80.21644 779 ft 151 kts 57°
2026-05-03 20:55 25.98926 -80.20661 761 ft 150 kts 45°
2026-05-03 20:55 25.99780 -80.20333 762 ft 132 kts
2026-05-03 20:55 26.00725 -80.20299 691 ft 140 kts
2026-05-03 20:55 26.01711 -80.20306 674 ft 139 kts 351°
2026-05-03 20:56 26.02681 -80.20393 667 ft 134 kts 337°
2026-05-03 20:56 26.03476 -80.20804 615 ft 121 kts 321°
2026-05-03 20:56 26.04100 -80.21246 559 ft 90 kts 330°
2026-05-03 20:56 26.04608 -80.21320 459 ft 58 kts 15°
2026-05-03 20:57 26.04900 -80.21199 289 ft 33 kts 26°
2026-05-03 20:57 26.05038 -80.21101 175 ft 16 kts 24°
2026-05-03 20:57 26.05071 -80.21082 133 ft 1 kts 88°
2026-05-03 20:57 26.05067 -80.21075 120 ft 0 kts 88°
2026-05-03 20:58 26.05068 -80.21077 119 ft 0 kts 88°
2026-05-03 21:04 26.05069 -80.21076 130 ft 2 kts 89°
2026-05-03 21:04 26.05066 -80.21059 175 ft 18 kts 130°
2026-05-03 21:04 26.05022 -80.20693 363 ft 73 kts 115°
2026-05-03 21:04 26.04781 -80.20069 444 ft 105 kts 126°
2026-05-03 21:05 26.04416 -80.19274 498 ft 118 kts 85°
2026-05-03 21:05 26.04509 -80.18368 512 ft 118 kts 82°
2026-05-03 21:05 26.04703 -80.17494 518 ft 114 kts 84°
2026-05-03 21:05 26.04743 -80.16640 596 ft 111 kts 89°
2026-05-03 21:06 26.04790 -80.15757 599 ft 117 kts 83°
2026-05-03 21:06 26.05201 -80.15158 676 ft 84 kts
2026-05-03 21:06 26.05796 -80.15133 586 ft 89 kts 355°
2026-05-03 21:06 26.06416 -80.15198 438 ft 81 kts 315°
2026-05-03 21:07 26.06702 -80.15566 219 ft 49 kts 279°
2026-05-03 21:07 26.06768 -80.15751 67 ft 6 kts 283°
2026-05-03 21:07 26.06777 -80.15772 10 ft 0 kts 272°
2026-05-03 21:07 26.06777 -80.15784 8 ft 6 kts 273°
2026-05-03 21:08 26.06761 -80.15838 7 ft 3 kts 256°
2026-05-03 21:08 26.06764 -80.15841 7 ft 0 kts 358°
2026-05-03 21:08 26.06765 -80.15841 7 ft 0 kts
2026-05-03 21:11 26.06769 -80.15836 15 ft 3 kts 297°
2026-05-03 21:11 26.06768 -80.15843 36 ft 9 kts 186°
2026-05-03 21:12 26.06456 -80.15883 219 ft 74 kts 184°
2026-05-03 21:12 26.05885 -80.15950 530 ft 90 kts 195°
2026-05-03 21:12 26.05257 -80.16208 660 ft 100 kts 206°
2026-05-03 21:12 26.04631 -80.16576 733 ft 102 kts 211°
2026-05-03 21:13 26.04007 -80.17005 732 ft 108 kts 210°
2026-05-03 21:13 26.03319 -80.17426 715 ft 115 kts 208°
2026-05-03 21:13 26.02593 -80.17861 739 ft 120 kts 211°
2026-05-03 21:13 26.01862 -80.18342 748 ft 125 kts 210°
2026-05-03 21:14 26.01101 -80.18842 750 ft 127 kts 209°
2026-05-03 21:14 26.00363 -80.19398 748 ft 129 kts 221°
2026-05-03 21:14 25.99760 -80.20136 750 ft 128 kts 225°
2026-05-03 21:14 25.99162 -80.20877 736 ft 129 kts 226°
2026-05-03 21:15 25.98571 -80.21629 749 ft 128 kts 227°
2026-05-03 21:15 25.97989 -80.22364 751 ft 123 kts 225°
2026-05-03 21:15 25.97463 -80.23088 716 ft 115 kts 226°
2026-05-03 21:15 25.96952 -80.23737 688 ft 112 kts 231°
2026-05-03 21:16 25.96629 -80.24495 647 ft 102 kts 244°
2026-05-03 21:16 25.96422 -80.25204 593 ft 90 kts 245°
2026-05-03 21:16 25.96074 -80.25596 594 ft 68 kts 176°
2026-05-03 21:16 25.95765 -80.25289 533 ft 59 kts 82°
2026-05-03 21:17 25.95805 -80.24887 410 ft 43 kts 74°
2026-05-03 21:17 25.95840 -80.24692 290 ft 34 kts 69°
2026-05-03 21:17 25.95906 -80.24448 124 ft 15 kts 94°
2026-05-03 21:17 25.95908 -80.24413 85 ft 2 kts 150°
2026-05-03 21:18 25.95896 -80.24407 77 ft 8 kts 176°
2026-05-03 21:18 25.95849 -80.24400 15 ft 1 kts 180°
2026-05-03 21:18 25.95847 -80.24400 8 ft 0 kts 179°
2026-05-03 21:34 25.95854 -80.24400 17 ft 4 kts 176°
2026-05-03 21:34 25.95857 -80.24384 19 ft 2 kts 44°
2026-05-03 21:35 25.95859 -80.24384 22 ft 2 kts 27°
2026-05-03 21:35 25.95874 -80.24381 242 ft 28 kts 31°
2026-05-03 21:35 25.96204 -80.24114 457 ft 87 kts 47°
2026-05-03 21:35 25.96693 -80.23509 718 ft 118 kts 41°
2026-05-03 21:36 25.97348 -80.22842 772 ft 132 kts 34°
2026-05-03 21:36 25.97969 -80.22089 749 ft 134 kts 58°
2026-05-03 21:36 25.98528 -80.21251 748 ft 135 kts 46°
2026-05-03 21:36 25.99191 -80.20479 772 ft 137 kts 40°
2026-05-03 21:37 25.99925 -80.19755 739 ft 145 kts 37°
2026-05-03 21:37 26.00742 -80.19057 723 ft 146 kts 30°
2026-05-03 21:37 26.01615 -80.18506 726 ft 144 kts 17°
2026-05-03 21:37 26.02549 -80.18103 716 ft 142 kts 15°
2026-05-03 21:38 26.03433 -80.17757 689 ft 123 kts 15°
2026-05-03 21:38 26.04186 -80.17452 664 ft 109 kts 18°
2026-05-03 21:38 26.04857 -80.17144 646 ft 99 kts 18°
2026-05-03 21:38 26.05483 -80.16885 557 ft 90 kts 21°